Regional Weather Roundup
Issued by NWS

Home | Current Version | Previous Version | Text Only | Print | Product List | Glossary Off
Versions: 1 2 3 4 5 6 7 8 9 10 11 12 13 14 15 16 17 18 19 20 21 22 23 24 25 26 27 28 29 30 31 32 33 34 35 36 37 38 39 40 41 42 43 44 45 46 47 48 49 50

000
ASUS43 KFSD 282202
RWRSD

WEATHER ROUNDUP FOR SOUTH DAKOTA
NATIONAL WEATHER SERVICE SIOUX FALLS SD
500 PM CDT THU JUL 28 2016

NOTE: "FAIR" INDICATES FEW OR NO CLOUDS BELOW 12,000 FEET WITH NO
SIGNIFICANT WEATHER AND/OR OBSTRUCTIONS TO VISIBILITY.


SDZ001>005-009-010-012>017-282300-
NORTHWEST AND NORTH CENTRAL SOUTH DAKOTA

CITY           SKY/WX    TMP DP  RH WIND       PRES   REMARKS
BUFFALO          N/A     66  61  84 NE3       30.08S
FAITH            N/A     65  62  90 NE7       30.13R
MOBRIDGE       PTSUNNY   80  56  43 NE9       30.07F
$$

SDZ012>016-024>037-041>051-057-063-072>074-282300-
SOUTHWEST AND SOUTH CENTRAL SOUTH DAKOTA

CITY           SKY/WX    TMP DP  RH WIND       PRES   REMARKS
RAPID CTY ARPT CLOUDY    75  57  53 NE13      30.12F
PIERRE         CLOUDY    74  60  61 W13       30.05R
CUSTER         CLOUDY    71  46  40 N9        30.22F
ELLSWORTH AFB  PTSUNNY   72  58  61 NE7       30.12S
PHILIP         HVY RAIN  65  64  97 N14       30.11R FOG
PINE RIDGE     LGT RAIN  74  58  57 NW10      30.12S
WINNER         MOCLDY    74  64  71 SE10      30.06F
$$

SDZ004>011-016>023-039-040-282300-
NORTHEAST SOUTH DAKOTA

CITY           SKY/WX    TMP DP  RH WIND       PRES   REMARKS
ABERDEEN       CLOUDY    78  60  53 E5        30.06F
WATERTOWN      SUNNY     78  55  44 E14       30.07F
BROOKINGS      MOSUNNY   74  60  61 NE12      30.05F
SISSETON         N/A     78  60  53 NE5       30.05F
$$

SDZ017-020-022-023-036>040-048>070-282300-
SOUTHEAST SOUTH DAKOTA

CITY           SKY/WX    TMP DP  RH WIND       PRES   REMARKS
SIOUX FALLS    PTSUNNY   76  60  57 NE10      30.02S
HURON          CLOUDY    80  60  50 NE12      30.02F
CHAMBERLAIN    CLOUDY    81  58  45 NE3       30.04F
MITCHELL       PTSUNNY   80  62  54 NE9       30.03S
YANKTON        CLOUDY    79  59  50 N8        30.00S
$$

ABBREVIATIONS USED IN REMARKS
   TC - TEMPERATURE IN CELSIUS
  WCI - WIND CHILL INDEX
   HX - HEAT INDEX
  VSB - VISIBILITY





USA.gov is the U.S. government's official web portal to all federal, state and local government web resources and services.